Location: Bli��� Lhota
(48.7570°N, 14.0120°E)
Time: 08:19:32
(UTC+00:00)

Terra - Pass Details

Date: 18 September 2020
Orbit: 701 x 703 km, 98.2° (Epoch: 28 October)

Event Time Altitude Azimuth Distance (km) Brightness Sun altitude
Exits shadow 21:58:05 16° 314° (NW) 1,786 4.4 -38.2°
Drops below altitude 10° 21:59:22 10° 325° (NW) 2,182 5.0 -38.3°
Sets 22:01:56 0° 337° (NNW) 3,106 6.1 -38.4°
